カタログに戻る

TITAN 34D TRANSTAGE R/B

運用中MEO
NORAD 14677·ROCKET BODY·🇺🇸 United States

打ち上げ Jan 31, 1984 から Cape Canaveral Space Force Station

Loading…

次のパス (今後24時間)

TLE

最新Source: Space-Track

元期: Sep 14, 2026, 03:22 UTC

1 14677U 84009C   26257.14058582 -.00000343  00000-0  00000-0 0  9992
2 14677   6.1086   1.6304 1037777 104.9256 266.7805  0.99450400 26756

AllMySatでTITAN 34D TRANSTAGE R/Bをリアルタイム追跡

Download on the App Store